Location: Easter Hill Village
(37.9235°N, 122.3444°W)
Time: 22:03:06
(UTC+00:00)

Cosmos 1812 - Pass Details

Date: 16 September 2019
Orbit: 516 x 523 km, 82.5° (Epoch: 15 October)

Event Time Altitude Azimuth Distance (km) Brightness Sun altitude
Exits shadow 13:09:29 - 211° (SSW) 2,450 5.7 -9.1°
Reaches altitude 10° 13:11:21 10° 221° (SW) 1,754 4.9 -8.8°
Maximum altitude 13:14:43 29° 282° (WNW) 988 3.6 -8.1°
Drops below altitude 10° 13:18:07 10° 344° (NNW) 1,764 5.3 -7.5°
Sets 13:20:28 0° 356° (N) 2,656 6.4 -7.0°
